#timestamp,LO_Frequency,Hit,StdDev 
1547449215.6,286047000.3,N
1547449235.5,286047000.8,N
1547449255.3,286047000.3,N
1547449275.1,286047001.1,N
1547449295.9,286046999.8,N
1547449315.7,286046999.3,N
1547449335.5,286047002.5,N
1547449355.4,286047004.4,Y
1547449375.2,286047002.7,P
1547449395.1,286046999.8,N
1547449396.0,286046999.8,N
1547449415.8,286046998.8,N
1547449435.6,286046998.9,N
1547449455.5,286046998.7,N
1547449475.3,286046999.4,N
1547449495.1,286046999.3,N
1547449515.9,286046999.5,N
1547449535.7,286046999.2,N
1547449555.6,286046998.8,N
1547449575.4,286046996.9,N
1547449595.2,286046998.8,N
1547449615.1,286046998.9,N
1547449616.0,286046998.9,N
1547449635.8,286046997.1,N
1547449655.6,286046999.4,N
1547449675.5,286046996.5,N
1547449695.3,286046999.4,N
1547449715.2,286046999.5,N
1547449735.9,286046998.7,N
1547449755.7,286046998.7,N
1547449775.6,286047000.6,N
1547449795.4,286047000.0,N
1547449815.2,286046999.1,N
1547449835.1,286047000.8,N
1547449836.0,286047000.8,N
1547449855.8,286046999.0,N
1547449875.7,286046999.2,N
1547449895.5,286046999.2,N
1547449915.3,286047011.9,Y
1547449935.2,286046999.4,P
1547449955.0,286046997.3,P
1547449955.9,286046997.3,N
1547449975.8,286047000.7,N
1547449995.6,286047000.6,N
1547450015.4,286046996.5,N
1547450035.3,286046999.2,N
1547450055.1,286047001.2,N
1547450075.8,286047000.5,N
1547450095.7,286046998.4,N
1547450115.5,286046998.7,N
1547450135.3,286046999.1,N
1547450155.2,286046999.0,N
1547450175.0,286046999.1,N
1547450175.9,286046999.1,N
1547450195.8,286046998.4,N
1547450215.6,286046999.4,N
1547450235.4,286046998.9,N
1547450255.3,286046999.1,N
1547450275.1,286046998.7,N
1547450295.8,286047001.2,N
1547450315.7,286047000.9,N
1547450335.5,286046998.5,N
1547450355.4,286047000.6,N
1547450375.2,286047001.0,N
1547450395.0,286047000.7,N
1547450395.9,286047000.7,N
1547450415.8,286046999.4,N
1547450435.6,286046999.3,N
1547450455.4,286046998.8,N
1547450475.3,286046999.0,N
1547450495.1,286046998.3,N
1547450515.9,286046998.1,N
1547450535.7,286047001.2,N
1547450555.5,286047000.5,N
1547450575.4,286046998.6,N
1547450595.2,286046998.4,N
1547450615.0,286046996.5,Y
1547450615.9,286046996.5,P
1547450635.8,286046997.3,N
1547450655.6,286046997.9,N
1547450675.5,286046997.7,N
1547450695.3,286046995.3,Y
1547450715.1,286047000.6,P
1547450735.9,286047000.0,N
1547450755.7,286047001.0,N
1547450775.6,286046998.1,N
1547450795.4,286046998.1,N
1547450815.2,286047002.7,N
1547450835.1,286047002.2,N
1547450836.0,286047002.2,N
1547450855.8,286047005.1,N
1547450875.6,286047005.2,N
1547450895.5,286047004.1,N
1547450915.3,286047001.6,N
1547450935.1,286047003.9,N
1547450955.9,286047003.8,N
1547450975.7,286047003.5,N
1547450995.6,286047006.0,N
1547451015.4,286047002.9,N
1547451035.2,286047007.5,Y
1547451055.1,286047001.8,P
1547451056.0,286047001.8,P
1547451075.8,286047002.8,P
1547451095.7,286047002.7,Y
1547451115.5,286046998.4,P
1547451135.3,286047000.7,N
1547451155.2,286047000.3,N
1547451175.9,286046998.9,N
1547451195.7,286046996.5,N
1547451215.6,286046996.9,N
1547451235.4,286046996.8,N
1547451255.2,286046998.0,N
1547451275.1,286046997.4,N
1547451276.0,286046997.4,N
1547451295.8,286046995.9,N
1547451315.7,286046993.4,Y
1547451335.5,286046995.3,P
1547451355.3,286046994.9,P
1547451375.2,286046996.0,N
1547451395.0,286046998.0,N
1547451395.9,286046998.0,N
1547451415.8,286046996.1,N
1547451435.6,286046993.8,Y
1547451455.4,286046998.9,P
1547451475.3,286046996.6,P
1547451495.1,286046999.2,N
1547451515.8,286047000.5,N
1547451535.7,286047002.3,N
1547451555.5,286047000.6,N
1547451575.4,286046998.6,N
1547451595.2,286046998.2,N
1547451615.0,286046998.2,N
1547451615.9,286046998.2,N
1547451635.8,286046999.7,N
1547451655.6,286047000.3,N
1547451675.4,286047002.1,N
1547451695.3,286047001.4,N
1547451715.1,286047003.9,N
1547451735.9,286047001.7,N
1547451755.7,286047001.9,N
1547451775.5,286047001.4,N
1547451795.4,286047003.5,N
1547451815.2,286047001.8,N
1547451835.0,286047002.2,N
1547451835.9,286047002.2,N
1547451855.8,286047002.3,N
1547451875.6,286047002.3,N
1547451895.4,286047002.0,N
1547451915.3,286047002.0,N
1547451935.1,286047002.5,N
1547451955.9,286046999.7,N
1547451975.7,286047000.4,N
1547451995.5,286047001.5,N
1547452015.4,286047004.0,N
1547452035.2,286047004.3,N
1547452055.0,286047002.4,N
1547452056.0,286047002.4,N
1547452075.8,286047000.0,N
1547452095.6,286046999.7,N
1547452115.5,286047000.3,N
1547452135.3,286047000.5,N
1547452155.1,286046998.7,N
1547452175.9,286046999.1,N
1547452195.7,286047000.5,N
1547452215.6,286046999.9,N
1547452235.4,286046998.1,N
1547452255.2,286046996.8,N
1547452275.1,286046996.7,N
1547452276.0,286046996.7,N
1547452295.8,286046995.2,N
1547452315.6,286046997.1,N
1547452335.5,286046997.7,N
1547452355.3,286046997.5,N
1547452375.2,286046996.7,N
1547452395.9,286046996.9,N
1547452415.7,286046997.1,N
1547452435.6,286046996.9,N
1547452455.4,286046998.9,N
1547452475.2,286046996.6,N
1547452495.1,286046998.8,N
1547452496.0,286046998.8,N
1547452515.8,286047000.1,N
1547452535.7,286046999.8,N
1547452555.5,286046998.3,N
1547452575.3,286046999.3,N
1547452595.2,286046996.9,N
1547452615.0,286046997.4,N
1547452615.9,286046997.4,N
1547452635.7,286046996.9,N
1547452655.6,286046999.4,N
1547452675.4,286046996.8,N
1547452695.3,286047001.0,N
1547452715.1,286046999.0,N
1547452716.0,286046999.0,N
1547452735.8,286047001.2,N
1547452755.7,286047000.4,N
1547452775.5,286047000.8,N
1547452795.3,286046999.3,N
